Location: Apeadero de Los Molinos-Guadarrama
(40.7091°N, 4.0689°W)
Time: 13:42:23
(UTC+00:00)

ISS - Pass Details

Date: 03 October 2021
Orbit: 417 x 423 km, 51.6° (Epoch: 28 October)

Event Time Altitude Azimuth Distance (km) Brightness Sun altitude
Rises 19:53:54 0° 303° (WNW) 2,365 1.3 -23.2°
Reaches altitude 10° 19:56:01 10° 299° (WNW) 1,499 0.1 -23.6°
Enters shadow 19:58:27 40° 272° (W) 633 -2.4 -24.0°
